Auburn, Auburn Municipal Airport, United States
Lat: 38.95N, Lon: 121.07W
Local Info
Past Weather Observations for Saturday, May 23, 2015

NOTE: This archive is for the closest National Weather Service station to Auburn, Auburn Municipal Airport. Information may differ from the station used for current weather conditions.

Click here for Long-term Archive

Time Weather Temperature Dewpoint Humidity Pressure Winds Precip Visibility
23:55
Clear
55°F / 13°C 54°F / 12°C 94% 30.01 in
(1016 mb)
E 6.9 mph
(E 11 kph)
- 10SM
23:35
Clear
57°F / 14°C 54°F / 12°C 88% 30.01 in
(1016 mb)
E 5.8 mph
(E 9 kph)
- 10SM
23:15
Clear
57°F / 14°C 54°F / 12°C 88% 30.01 in
(1016 mb)
Calm - 10SM
22:55
Clear
57°F / 14°C 54°F / 12°C 88% 30.01 in
(1016 mb)
E 5.8 mph
(E 9 kph)
- 10SM
22:35
Clear
57°F / 14°C 54°F / 12°C 88% 30.01 in
(1016 mb)
SE 4.6 mph
(SE 7 kph)
- 10SM
22:15
Clear
59°F / 15°C 55°F / 13°C 88% 30.01 in
(1016 mb)
ESE 5.8 mph
(ESE 9 kph)
- 10SM
21:55
Clear
59°F / 15°C 54°F / 12°C 82% 30.04 in
(1017 mb)
SE 5.8 mph
(SE 9 kph)
- 10SM
21:35
Clear
59°F / 15°C 54°F / 12°C 82% 30.04 in
(1017 mb)
Calm - 10SM
21:15
Clear
61°F / 16°C 52°F / 11°C 72% 30.04 in
(1017 mb)
Calm - 10SM
20:55
Clear
59°F / 15°C 52°F / 11°C 77% 30.04 in
(1017 mb)
E 3.5 mph
(E 6 kph)
- 10SM
20:35
Clear
61°F / 16°C 52°F / 11°C 72% 30.01 in
(1016 mb)
Calm - 10SM
20:15
Clear
61°F / 16°C 52°F / 11°C 72% 30.01 in
(1016 mb)
Calm - 10SM
19:55
Clear
63°F / 17°C 52°F / 11°C 68% 30.01 in
(1016 mb)
Calm - 10SM
19:35
Clear
63°F / 17°C 52°F / 11°C 68% 30.01 in
(1016 mb)
Calm - 10SM
19:15
Clear
66°F / 19°C 52°F / 11°C 60% 30.01 in
(1016 mb)
Calm - 10SM
18:55
Clear
66°F / 19°C 52°F / 11°C 60% 30.01 in
(1016 mb)
Calm - 10SM
18:35
Partly Cloudy
68°F / 20°C 52°F / 11°C 56% 30.01 in
(1016 mb)
Calm - 10SM
18:15
Partly Cloudy
70°F / 21°C 52°F / 11°C 53% 30.01 in
(1016 mb)
Calm - 10SM
17:55
Clear
70°F / 21°C 52°F / 11°C 53% 30.01 in
(1016 mb)
SE 3.5 mph
(SE 6 kph)
- 10SM
17:35
Clear
70°F / 21°C 52°F / 11°C 53% 30.01 in
(1016 mb)
E 3.5 mph
(E 6 kph)
- 10SM
17:15
Partly Cloudy
70°F / 21°C 52°F / 11°C 53% 30.01 in
(1016 mb)
NE 3.5 mph
(NE 6 kph)
- 10SM
16:55
Mostly Cloudy
68°F / 20°C 50°F / 10°C 53% 30.01 in
(1016 mb)
Calm - 10SM
16:35
Partly Cloudy
70°F / 21°C 52°F / 11°C 53% 30.01 in
(1016 mb)
E 5.8 mph
(E 9 kph)
- 10SM
16:15
Clear
70°F / 21°C 50°F / 10°C 50% 30.01 in
(1016 mb)
W 5.8 mph
(W 9 kph)
- 10SM
15:55
Partly Cloudy
70°F / 21°C 52°F / 11°C 53% 30.01 in
(1016 mb)
WNW 5.8 mph
(WNW 9 kph)
- 10SM
15:35
Mostly Cloudy
72°F / 22°C 52°F / 11°C 50% 30.01 in
(1016 mb)
W 6.9 mph
(W 11 kph)
- 10SM
15:15
Partly Cloudy
72°F / 22°C 52°F / 11°C 50% 30.01 in
(1016 mb)
SSW 5.8 mph
(SSW 9 kph)
- 10SM
14:55
Partly Cloudy
72°F / 22°C 50°F / 10°C 47% 30.04 in
(1017 mb)
Calm - 10SM
14:35
Partly Cloudy
72°F / 22°C 52°F / 11°C 50% 30.04 in
(1017 mb)
SSW 5.8 mph
(SSW 9 kph)
- 10SM
14:15
Clear
72°F / 22°C 52°F / 11°C 50% 30.04 in
(1017 mb)
SSW 6.9 mph
(SSW 11 kph)
- 10SM
13:55
Partly Cloudy
70°F / 21°C 48°F / 9°C 46% 30.04 in
(1017 mb)
S 5.8 mph
(S 9 kph)
- 10SM
13:35
Partly Cloudy
70°F / 21°C 52°F / 11°C 53% 30.04 in
(1017 mb)
S 5.8 mph
(S 9 kph)
- 10SM
13:15
Mostly Cloudy
70°F / 21°C 52°F / 11°C 53% 30.06 in
(1018 mb)
W 6.9 mph
(W 11 kph)
- 10SM
12:55
Partly Cloudy
68°F / 20°C 52°F / 11°C 56% 30.06 in
(1018 mb)
SSE 6.9 mph
(SSE 11 kph)
- 10SM
12:35
Clear
70°F / 21°C 52°F / 11°C 53% 30.06 in
(1018 mb)
SW 6.9 mph
(SW 11 kph)
- 10SM
12:15
Clear
68°F / 20°C 52°F / 11°C 56% 30.06 in
(1018 mb)
S 5.8 mph
(S 9 kph)
- 10SM
11:55
Partly Cloudy
66°F / 19°C 52°F / 11°C 60% 30.06 in
(1018 mb)
S 8.1 mph
(S 13 kph)
- 10SM
11:35
Mostly Cloudy
64°F / 18°C 52°F / 11°C 64% 30.06 in
(1018 mb)
SW 5.8 mph
(SW 9 kph)
- 10SM
11:15
Mostly Cloudy
66°F / 19°C 52°F / 11°C 60% 30.09 in
(1019 mb)
SW 4.6 mph
(SW 7 kph)
- 10SM
10:55
Partly Cloudy
64°F / 18°C 52°F / 11°C 64% 30.06 in
(1018 mb)
SW 5.8 mph
(SW 9 kph)
- 10SM
10:35
Clear
64°F / 18°C 52°F / 11°C 64% 30.06 in
(1018 mb)
S 6.9 mph
(S 11 kph)
- 10SM
10:15
Partly Cloudy
63°F / 17°C 50°F / 10°C 64% 30.06 in
(1018 mb)
S 8.1 mph
(S 13 kph)
- 10SM
09:55
Mostly Cloudy
61°F / 16°C 50°F / 10°C 68% 30.09 in
(1019 mb)
S 3.5 mph
(S 6 kph)
- 10SM
09:35
Overcast
61°F / 16°C 50°F / 10°C 68% 30.09 in
(1019 mb)
Calm - 10SM
09:15
Overcast
61°F / 16°C 50°F / 10°C 68% 30.09 in
(1019 mb)
SSE 3.5 mph
(SSE 6 kph)
- 10SM
08:55
Overcast
59°F / 15°C 50°F / 10°C 72% 30.09 in
(1019 mb)
S 4.6 mph
(S 7 kph)
- 10SM
08:35
Mostly Cloudy
57°F / 14°C 50°F / 10°C 77% 30.09 in
(1019 mb)
S 5.8 mph
(S 9 kph)
- 10SM
08:15
Overcast
57°F / 14°C 50°F / 10°C 77% 30.09 in
(1019 mb)
SSE 6.9 mph
(SSE 11 kph)
- 10SM
07:55
Mostly Cloudy
57°F / 14°C 50°F / 10°C 77% 30.06 in
(1018 mb)
SSE 5.8 mph
(SSE 9 kph)
- 10SM
07:35
Overcast
55°F / 13°C 50°F / 10°C 82% 30.06 in
(1018 mb)
SE 5.8 mph
(SE 9 kph)
- 10SM
07:15
Mostly Cloudy
54°F / 12°C 50°F / 10°C 88% 30.06 in
(1018 mb)
SSE 4.6 mph
(SSE 7 kph)
- 10SM
06:55
Mostly Cloudy
54°F / 12°C 50°F / 10°C 88% 30.06 in
(1018 mb)
SSE 3.5 mph
(SSE 6 kph)
- 10SM
06:35
Mostly Cloudy
54°F / 12°C 50°F / 10°C 88% 30.06 in
(1018 mb)
Calm - 10SM
06:15
Mostly Cloudy
54°F / 12°C 50°F / 10°C 88% 30.06 in
(1018 mb)
SSE 4.6 mph
(SSE 7 kph)
- 10SM
05:55
Mostly Cloudy
52°F / 11°C 50°F / 10°C 94% 30.06 in
(1018 mb)
SW 4.6 mph
(SW 7 kph)
- 10SM
05:35
Mostly Cloudy
54°F / 12°C 50°F / 10°C 88% 30.04 in
(1017 mb)
S 3.5 mph
(S 6 kph)
- 10SM
05:15
Mostly Cloudy
54°F / 12°C 50°F / 10°C 88% 30.04 in
(1017 mb)
Calm - 10SM
04:55
Mostly Cloudy
54°F / 12°C 50°F / 10°C 88% 30.04 in
(1017 mb)
Calm - 10SM
04:35
Overcast
54°F / 12°C 50°F / 10°C 88% 30.04 in
(1017 mb)
Calm - 10SM
04:15
Overcast
54°F / 12°C 48°F / 9°C 82% 30.04 in
(1017 mb)
SSW 3.5 mph
(SSW 6 kph)
- 10SM
03:55
Overcast
55°F / 13°C 50°F / 10°C 82% 30.04 in
(1017 mb)
Calm - 10SM
03:35
Overcast
55°F / 13°C 50°F / 10°C 82% 30.04 in
(1017 mb)
SSE 4.6 mph
(SSE 7 kph)
- 10SM
03:15
Overcast
54°F / 12°C 50°F / 10°C 88% 30.04 in
(1017 mb)
SSE 3.5 mph
(SSE 6 kph)
- 10SM
02:55
Mostly Cloudy
54°F / 12°C 48°F / 9°C 82% 30.04 in
(1017 mb)
Calm - 10SM
02:35
Mostly Cloudy
54°F / 12°C 48°F / 9°C 82% 30.04 in
(1017 mb)
Calm - 10SM
02:15
Mostly Cloudy
55°F / 13°C 48°F / 9°C 77% 30.04 in
(1017 mb)
Calm - 10SM
01:55
Mostly Cloudy
55°F / 13°C 48°F / 9°C 77% 30.04 in
(1017 mb)
Calm - 10SM
01:35
Mostly Cloudy
55°F / 13°C 48°F / 9°C 77% 30.04 in
(1017 mb)
SSE 4.6 mph
(SSE 7 kph)
- 10SM
01:15
Mostly Cloudy
55°F / 13°C 48°F / 9°C 77% 30.04 in
(1017 mb)
S 3.5 mph
(S 6 kph)
- 10SM
00:55
Overcast
55°F / 13°C 50°F / 10°C 82% 30.04 in
(1017 mb)
SW 4.6 mph
(SW 7 kph)
- 10SM
00:35
Overcast
55°F / 13°C 50°F / 10°C 82% 30.04 in
(1017 mb)
SSE 4.6 mph
(SSE 7 kph)
- 10SM
00:15
Overcast
55°F / 13°C 50°F / 10°C 82% 30.04 in
(1017 mb)
SSE 5.8 mph
(SSE 9 kph)
- 10SM
Time Weather Temperature Dewpoint Humidity Pressure Winds Precip Visibility


Weather for websites

WeatherForYou.com, LLC is not responsible for any damages or problems caused by this service. Current weather conditions are obtained from the closest station including government and personal stations which may have varying degrees of accuracy. Weather forecasts are derived from the NOAA NDFD. Like all things, this site belongs to Jesus Christ... He just trusts us to maintain it. If you have any questions or comments email webmaster@weatherforyou.com

Copyright © 2015, WeatherForYou.com LLC. All rights reserved.